Other Public Products
Issued by NWS Grand Forks, ND

Home | Current Version | Previous Version | Graphics & Text | Print | Product List | Glossary On
Versions: 1 2 3 4 5 6 7 8 9 10 11 12 13 14 15 16 17 18 19 20 21 22 23 24 25 26 27 28 29 30 31 32 33 34 35 36 37 38 39 40 41 42 43 44 45 46 47 48 49 50
000
FPUS83 KFGF 290731
OPUFGF
PRAIRIE TO PINES WEATHER ROUNDUP
NATIONAL WEATHER SERVICE EASTERN NORTH DAKOTA/GRAND FORKS ND
200 AM CDT SAT APR 29 2017

 **SATELLITE DATA USED TO AUGMENT SKY COVER AT AUTOMATED STATIONS**
 *****  WEATHER ACROSS EASTERN NORTH DAKOTA  *****

CITY           SKY/WX    TMP DP  RH WIND       PRES   REMARKS
GRAND FORKS    FAIR      34  28  79 NW3       30.21R
GRAND FORKS AF FAIR      31  24  75 N5        30.21S
GRAND CITY NWS NOT AVBL
BUXTON           N/A     37  25  60 N5          N/A
DEVILS LAKE    FAIR      34  28  79 CALM      30.22S
FARGO          FAIR      33  25  72 CALM      30.21R
WAHPETON ARPT  FAIR      32  27  80 N5        30.21S
$$

 *****  WEATHER ACROSS CENTRAL AND WESTERN NORTH DAKOTA  *****

CITY           SKY/WX    TMP DP  RH WIND       PRES   REMARKS
JAMESTOWN      FAIR      33  28  81 CALM      30.21R
BISMARCK       FAIR      30  24  78 CALM      30.22R
MINOT          FAIR      37  24  59 S6        30.18R
MINOT AFB      FAIR      32  24  73 S3        30.17S
GARRISON         N/A     34  21  59 CALM      30.19R
WILLISTON      FAIR      36  27  69 CALM      30.16S
DICKINSON      FAIR      28  17  63 S8        30.18S WCI  20
HETTINGER      FAIR      29  23  78 CALM      30.21S
$$

 *****  OTHER OBSERVATIONS NORTHEAST NORTH DAKOTA  *****

CITY           SKY/WX    TMP DP  RH WIND       PRES   REMARKS
WALHALLA       NOT AVBL
LANGDON        FAIR      27  21  80 CALM      30.22R
CAVALIER       FAIR      30  21  69 CALM      30.24R
GRAFTON        FAIR      32  21  64 N5        30.25S
CANDO          NOT AVBL
FORT TOTTEN      N/A     38  16  40 SE5       29.95S
ROLLA          FAIR      28  19  69 SW6       30.21S WCI  22
RUGBY          NOT AVBL
 ***** THE ABOVE OBSERVATIONS ARE NON NWS ARE NOT QUALITY
        CONTROLLED AND MAY MIS-REPORT RAIN FOR SNOW...
$$

 *****  OTHER OBSERVATIONS SOUTHEAST NORTH DAKOTA *****

CITY           SKY/WX    TMP DP  RH WIND       PRES   REMARKS
COOPERSTOWN    FAIR      30  28  93 W6        30.23R WCI  24
VALLEY CITY    FAIR      36  19  51 N5        30.24R
OAKES          NOT AVBL
GWINNER        SUNNY     37  23  56 MISG      30.21S
SHEYENNE NWR     N/A     28  24  84 NW2       29.95S
BUFFALO          N/A     33  23  66 CALM        N/A
WYNDMERE         N/A     30  25  80 NW3         N/A
 ***** THE ABOVE OBSERVATIONS ARE NON NWS ARE NOT QUALITY
       CONTROLLED AND MAY MIS-REPORT RAIN FOR SNOW...
$$

  *****  WEATHER ACROSS NORTHERN MINNESOTA  *****

CITY           SKY/WX    TMP DP  RH WIND       PRES   REMARKS
FLAG ISLAND    FAIR      36  23  60 W8        30.21R
WARROAD        FAIR      30  18  59 NW3       30.23R
ROSEAU         FAIR      30  16  55 W3        30.23R
HALLOCK        FAIR      28  21  74 CALM      30.23R
THF RVR FALLS  FAIR      31  21  66 CALM      30.23R
HALSTAD          N/A     31  27  83 CALM        N/A
FOSSTON        FAIR      23  16  74 CALM      30.22R
BAUDETTE       FAIR      28  21  75 CALM      30.20
WASKISH        FAIR      27  25  93 CALM      30.21R
CROOKSTON      FAIR      36  27  69 E5        30.23S
$$
  *****  WEATHER ACROSS CENTRAL AND WEST MINNESOTA  *****

CITY           SKY/WX    TMP DP  RH WIND       PRES   REMARKS
BEMIDJI        FAIR      25  20  81 CALM      30.21R
PARK RAPIDS    FAIR      32  20  61 CALM      30.19S
WADENA         FAIR      28  19  69 CALM      30.20S
DETROIT LAKES  FAIR      34  30  86 CALM      30.21R
MOORHEAD       FAIR      34  27  75 CALM      30.23R
FERGUS FALLS   FAIR      32  23  69 NE5       30.22R
ELBOW LAKE     FAIR      37  25  60 CALM      30.20R
MORRIS MN      FAIR      30  23  74 NE5       30.20R
STAPLES        FAIR      28  21  74 CALM      30.20S
WHEATON        FAIR      30  25  80 CALM      30.23R
$$
  *****  WEATHER ELSEWHERE ACROSS MINNESOTA  *****

CITY           SKY/WX    TMP DP  RH WIND       PRES   REMARKS
DULUTH         FAIR      31  25  78 N3        30.19R
INTRNTL FALLS  FAIR      25  21  85 CALM      30.20R
ELY            FAIR      25  23  93 CALM      30.20R
CLOQUET        FAIR      27  23  86 CALM      30.21R
BRAINERD       FAIR      31  25  78 CALM      30.21R
HIBBING        FAIR      23  21  92 CALM      30.20R
ALEXANDRIA     FAIR      37  21  52 NE7       30.19S
SAINT CLOUD    FAIR      39  25  57 NE6       30.18S
MINNEAPOLIS    FAIR      43  27  53 NE9       30.18R
$$

  *****  WEATHER ACROSS SOUTH DAKOTA  *****

CITY           SKY/WX    TMP DP  RH WIND       PRES   REMARKS
SIOUX FALLS    FAIR      36  27  69 NE6       30.18R
BROOKINGS      FAIR      33  23  66 CALM      30.19R
WATERTOWN      FAIR      29  20  69 NW3       30.20R
HURON          FAIR      30  21  69 CALM      30.21R
SISSETON         N/A     28  23  81 N7        30.19S WCI  21
ABERDEEN       FAIR      33  23  66 NW5       30.22R
MITCHELL       FAIR      32  24  72 N5        30.21R
PIERRE         FAIR      32  20  61 NE5       30.19F
MOBRIDGE       FAIR      33  17  51 CALM      30.20R
RAPID CITY     FAIR      32  20  61 NE8       30.17F WCI  25
$$

  *****  SOME WEATHER IN NEARBY STATES *****

CITY           SKY/WX    TMP DP  RH WIND       PRES   REMARKS
GLASGOW MT     MOCLDY    42  34  73 CALM      30.17R
GREAT FALLS MT FAIR      32  28  85 S9        30.18S WCI  24
CHEYENNE WY    LGT SNOW  27  25  92 NE8       30.11R FOG     WCI  19
SCOTTSBLUFF NE CLOUDY    34  31  88 NW5       30.15S
OMAHA NE       CLOUDY    44  37  76 N13       30.06F
DES MOINES IA  CLOUDY    45  38  76 N15       30.00F
DAVENPORT IA   CLOUDY    45  42  89 NE17      30.04R
CHICAGO IL     CLOUDY    46  39  76 NE14      30.04R
EAU CLAIRE WI  FAIR      37  30  75 NE10      30.17R
LA CROSSE WI   FAIR      40  33  76 N5        30.13S
$$

  *****  SOME NATIONAL WEATHER *****

CITY           SKY/WX    TMP DP  RH WIND       PRES   REMARKS
LA GUARDIA NY  CLOUDY    73  57  57 S5        30.01F
RALEIGH NC     FAIR      75  71  87 SW10      30.11S
ATLANTA GA     MOCLDY    73  66  78 S7        30.08F
NEW ORLEANS LA CLOUDY    78  73  84 SE15      29.92F
OKLAHOMA CITY  CLOUDY    66  63  90 E22       29.53F
ALBUQUERQUE NM CLOUDY    38  35  89 SW9       29.81F
SALT LAKE CITY MOCLDY    42  29  59 N13       30.04R
LOS ANGELES CA FAIR      72  28  19 N12G22    29.84R
BOISE ID       FAIR      43  30  60 NW9       30.16R
SEATTLE WA     MOCLDY    51  40  65 E6        30.32S
$$

*** WEATHER ACROSS MANITOBA...SASKATCHEWAN AND ONTARIO ***
                ***ONTARIO***

CITY           SKY/WX    TMP DP  RH WIND       PRES   REMARKS
GERALDTON      CLOUDY    28  19  69 NW10G20   30.04R WCI  19
THUNDER BAY    MOCLDY    32  25  74 W3        30.16R
SIOUX LOOKOUT  PTCLDY    21  19  93 CALM      30.17R
TORONTO        PTCLDY    55  45  67 W10       29.95F
BIG TROUT LK   CLEAR     23  10  58 NW8       30.11R WCI  14
PICKLE LAKE    NOT AVBL
DRYDEN         CLEAR     30  21  69 CALM      30.18R
KENORA         CLEAR     34  16  47 NW7       30.20
$$
                *** MANITOBA***

CITY           SKY/WX    TMP DP  RH WIND       PRES   REMARKS
BRANDON        CLEAR     28  18  64 E5        30.21R WCI  23
DAUPHIN        CLEAR     25  18  74 W3        30.19R
ISLAND LAKE    PTCLDY    28  18  64 CALM      30.20R
PILOT MOUND      N/A     28  19  69 SW5         N/A  WCI  23
THE PAS        CLEAR     28  18  64 CALM      30.17S
THOMPSON       MOCLDY    25  18  74 NE9       30.26R WCI  15
WINNIPEG       CLEAR     32  16  51 SW3       30.24R
LYNN LAKE      MOCLDY    30  27  86 E7        30.22R WCI  23
CHURCHILL      CLOUDY    16  12  86 N13       30.33R WCI   2
GILLAM         CLOUDY    18  12  79 NE10      30.30R WCI   6
$$
                ***SASKATCHEWAN***

CITY           SKY/WX    TMP DP  RH WIND       PRES   REMARKS
ESTEVAN        PTCLDY    37  30  75 W7        30.15S
KINDERSLEY     PTCLDY    30  27  86 NW5       30.13R
LLOYDMINSTER   MOCLDY    34  27  75 W7        30.11R
PRINCE ALBERT  MOCLDY    43  32  65 S8        30.10S
REGINA         CLOUDY    37  36  93 S6        30.16R
YORKTON        CLOUDY    39  23  52 SE7       30.12R



USA.gov is the U.S. government's official web portal to all federal, state and local government web resources and services.